SCP
0 0 0 0 0 0 0 0 0 0 0 0 0 0 0 0 0 0 0 0 0 0 0 0 0 0 0 0 0 0 0 0 0 0 0 0 0 0 0 0 0 0 0
0 0 0 0 0 0 0 0 0 0 0 0 0 0 0 0 0 0 0 0 0 0 0 0 0 0 0 0 0 0 0 0 0 0 0 0 0 0 0 0 0 0 0
0 0 0 0 0 0 0 0 0 0 0 0 0 0 0 0 0 0 0 0 0 0 0 0 0 0 0 0 0 0 0 0 0 0 0 0 0 0 0 0 0 0 0
0 0 0 0 0 0 0 0 0 0 0 0 0 0 0 0 0 0 0 0 0 0 0 0 0 0 0 0 0 0 0 0 0 0 0 0 0 0 0 0 0 0 0
0 0 0 0 0 0 0 0 0 0 0 0 0 0 0 0 0 0 0 0 0 0 0 0 0 0 0 0 0 0 0 0 0 0 0 0 0 0 0 0 0 0 0
0 0 0 0 0 0 0 0 0 0 0 0 0 0 0 0 0 0 0 0 0 0 0 0 0 0 0 0 0 0 0 0 0 0 0 0 0 0 0 0 0 0 0
0 0 0 0 0 0 0 0 0 0 0 0 0 0 0 0 0 0 0 0 0 0 0 0 0 0 0 0 0 0 0 0 0 0 0 0 0 0 0 0 0 0 0
0 0 0 0 0 0 0 0 0 0 0 0 0 0 0 0 0 0 0 0 0 0 0 0 0 0 0 0 0 0 0 0 0 0 0 0 0 0 0 0 0 0 0
0 0 0 0 0 0 0 0 0 0 0 0 0 0 0 0 0 0 0 0 0 0 0 0 0 0 0 0 0 0 0 0 0 0 0 0 0 0 0 0 0 0 0
0 0 0 0 0 0 0 0 0 0 0 0 0 0 0 0 0 0 0 0 0 0 0 0 0 0 0 0 0 0 0 0 0 0 0 0 0 0 0 0 0 0 0
0 0 0 0 0 0 0 0 0 0 0 0 0 0 0 0 0 0 0 0 0 0 0 0 0 0 0 0 0 0 0 0 0 0 0 0 0 0 0 0 0 0 0
0 0 0 0 0 0 0 0 0 0 0 0 0 0 0 0 0 0 0 0 0 0 0 0 0 0 0 0 0 0 0 0 0 0 0 0 0 0 0 0 0 0 0
0 0 0 0 0 0 0 0 0 0 0 0 0 0 0 0 0 0 0 0 0 0 0 0 0 0 0 0 0 0 0 0 0 0 0 0 0 0 0 0 0 0 0
0 0 0 0 0 0 0 0 0 0 0 0 0 0 0 0 0 0 0 0 0 0 0 0 0 0 0 0 0 0 0 0 0 0 0 0 0 0 0 0 0 0 0
0 0 0 0 0 0 0 0 0 0 0 0 0 0 0 0 0 0 0 0 0 0 0 0 0 0 0 0 0 0 0 0 0 0 0 0 0 0 0 0 0 0 0
1 1 1 1 0 0 0 0 0 0 0 0 1 1 0 0 0 0 0 0 0 0 0 0 0 0 0 0 0 0 0 0 0 0 0 0 0 0 0 0 0 0 0
1 1 1 1 1 1 1 0 0 0 0 1 1 1 1 0 0 0 0 0 0 0 0 0 0 0 0 0 0 0 0 0 0 0 0 0 0 0 0 0 0 0 0
1 1 1 1 1 1 1 1 0 0 0 1 1 1 1 1 0 0 0 0 0 0 0 0 0 0 0 0 0 0 0 0 0 0 0 0 0 0 0 0 0 0 0
1 1 1 1 1 1 1 1 1 1 0 0 0 0 0 0 0 0 0 0 0 0 0 0 0 0 1 1 1 0 0 0 0 0 0 0 0 0 0 0 0 0 0
1 1 1 1 1 1 1 1 1 0 0 0 0 0 0 0 0 0 0 0 0 0 1 0 0 0 1 1 1 0 0 1 0 0 0 0 0 0 0 0 0 0 0
1 1 1 1 1 1 1 0 0 0 0 1 1 0 0 0 0 0 0 0 0 0 1 1 1 1 1 1 1 1 1 1 1 1 0 0 0 0 0 0 0 0 0
1 1 1 1 1 1 0 0 0 0 0 1 1 0 0 0 0 0 0 0 0 0 0 1 1 1 1 1 1 1 1 1 1 1 1 0 0 0 0 0 0 0 0
1 1 1 1 1 1 0 0 0 0 0 0 0 0 0 0 0 0 0 0 0 0 0 0 0 1 1 1 1 1 1 1 1 1 1 0 0 0 0 0 0 0 0
1 1 1 1 1 1 0 0 0 0 0 0 0 0 0 0 0 0 0 0 0 0 0 0 0 0 0 1 1 1 1 1 1 1 1 0 0 0 0 0 0 0 0
1 1 1 1 1 1 0 0 0 0 1 0 0 0 0 0 0 0 0 0 0 0 0 0 0 0 0 0 0 0 1 1 1 1 1 0 0 0 0 0 0 0 0
1 1 1 1 1 1 0 0 0 0 1 1 1 0 0 0 0 0 0 0 0 0 0 0 0 0 0 0 0 0 0 0 1 1 1 1 0 0 0 0 0 0 0
Wind_Speed
4 4 3 2 3 3 4 3 3 3 3 3 3 3 3 3 2 2 4 9 8 8 8 8 8 8 9 9 8 8 8 8 8 8 9 9 9 8 8 8 7 7 7
3 3 3 3 2 2 2 2 2 3 2 1 2 2 2 3 3 3 3 6 9 8 8 8 8 8 8 9 9 8 8 8 7 7 8 9 9 9 8 8 8 8 8
3 3 2 3 3 3 3 3 2 2 3 3 2 2 2 2 2 3 3 3 5 9 8 8 8 8 8 9 9 9 9 8 8 7 7 7 8 8 8 8 8 8 8
4 3 3 3 3 3 3 3 3 2 2 2 2 1 1 1 2 3 3 3 3 4 7 9 8 8 8 9 10 10 9 9 8 8 7 7 7 8 8 8 8 8 8
4 4 3 2 3 3 3 3 3 2 2 2 2 2 2 2 2 2 2 2 3 3 3 7 9 8 9 9 9 9 9 9 9 8 8 8 8 8 7 8 7 7 8
5 4 3 3 3 3 3 2 2 2 2 2 2 1 1 2 2 2 3 3 3 4 4 4 6 8 10 8 8 8 9 9 9 9 8 8 8 8 7 7 8 8 7
4 4 3 3 3 3 3 4 3 4 3 2 2 2 2 3 3 2 2 2 3 3 3 4 4 4 6 10 9 8 9 9 10 9 9 9 9 8 8 8 8 8 8
5 5 4 3 4 3 4 4 4 3 3 3 2 2 2 3 3 3 3 3 3 3 3 4 4 4 4 4 6 10 9 9 10 9 9 8 8 8 8 8 8 8 8
5 4 4 4 3 4 4 4 5 5 3 3 3 3 2 1 0 3 3 3 3 3 3 3 5 5 5 4 4 8 10 9 10 10 10 9 9 8 9 9 9 9 8
5 5 5 4 4 3 3 5 4 4 4 4 3 3 3 2 2 1 3 3 3 4 4 4 4 5 6 5 4 4 7 9 10 10 10 10 9 9 9 9 10 9 9
5 5 5 4 4 4 4 4 3 4 4 4 3 3 3 3 4 4 3 2 3 4 4 5 4 4 5 5 5 5 7 8 9 9 10 10 9 9 9 9 10 10 9
4 5 5 4 4 4 4 4 4 5 4 4 3 3 3 3 4 4 4 4 4 3 4 3 4 4 4 4 5 5 7 8 9 9 10 10 9 9 9 9 9 9 9
4 5 5 4 4 4 4 4 5 4 5 5 5 4 3 4 3 4 4 4 4 3 4 5 4 4 4 4 4 6 7 8 8 9 9 9 9 9 9 9 9 9 8
4 4 5 5 4 5 5 4 4 5 4 5 5 4 4 4 4 4 4 4 5 4 4 5 4 5 4 4 3 7 6 8 8 8 9 9 9 9 9 9 8 8 7
4 5 5 5 5 4 4 5 4 4 4 5 5 5 5 4 4 4 4 5 5 5 4 4 4 4 4 4 3 5 5 6 8 8 8 9 9 9 9 8 8 7 7
4 4 4 4 4 4 5 5 5 4 5 5 4 5 5 4 4 4 5 5 5 6 5 4 4 3 3 3 4 5 5 7 9 9 8 8 9 9 9 8 8 8 7
5 5 5 5 5 4 4 4 5 5 5 5 5 5 6 5 4 4 4 4 5 5 6 5 4 3 4 5 3 5 6 6 6 10 9 7 7 8 8 8 8 7 7
6 6 5 5 5 5 5 5 6 5 6 6 6 6 6 5 6 6 5 6 5 6 7 7 5 4 5 6 5 6 5 5 4 8 10 8 8 8 8 8 8 7 7
6 6 6 5 5 5 5 5 5 5 6 6 6 6 6 6 6 5 6 6 5 6 6 6 6 4 5 5 5 5 5 4 5 5 9 9 9 9 8 8 8 8 7
6 6 6 6 5 5 5 5 6 6 6 6 6 6 6 6 7 6 6 6 6 6 6 6 6 5 5 4 5 5 4 4 4 4 4 5 8 10 9 9 9 8 8
6 5 5 6 5 5 5 5 5 6 6 7 7 7 7 6 6 6 6 5 6 6 6 6 6 6 5 4 5 5 4 4 4 4 4 4 6 6 7 9 9 9 8
5 5 6 6 6 4 2 3 5 6 6 7 7 6 7 7 7 7 7 7 7 7 7 6 6 6 6 6 5 5 4 5 4 3 4 4 4 4 5 5 8 10 9
5 5 5 5 5 4 3 4 5 6 6 6 6 6 6 5 6 7 7 8 8 9 9 8 9 8 7 6 5 6 6 6 5 4 4 5 4 5 5 4 8 10 10
4 4 5 5 5 4 4 4 5 7 6 6 7 7 7 6 5 6 7 7 7 7 8 8 7 8 7 5 6 7 7 7 6 5 5 5 4 4 4 3 8 10 9
4 5 5 5 5 4 4 4 5 6 6 7 7 7 7 7 4 5 7 7 7 6 5 5 6 5 4 5 5 5 5 6 6 5 4 4 4 4 4 4 6 11 10
3 4 3 4 4 4 3 4 6 5 5 5 6 6 6 6 4 4 7 7 7 6 5 4 5 6 6 6 7 7 6 6 5 4 4 4 4 3 4 4 4 5 7
Wind_Direction
152 148 141 148 170 161 164 169 175 166 181 183 197 193 201 200 198 176 142 162 183 193 195 195 197 199 201 202 202 201 204 204 204 206 207 206 205 206 207 206 205 204 204
140 152 155 167 172 178 163 173 175 177 192 178 199 204 214 209 190 198 182 167 180 190 197 198 201 204 204 202 203 204 208 210 207 206 209 211 212 210 209 211 215 214 212
151 169 162 183 175 176 168 186 182 190 191 189 190 191 206 217 200 204 212 195 178 181 192 198 201 207 210 208 209 209 210 212 211 209 211 213 213 211 212 214 216 217 216
171 186 180 184 172 183 175 178 204 200 191 202 188 196 193 171 201 209 217 209 210 189 182 190 201 207 213 217 215 214 212 210 210 210 211 212 213 212 214 216 217 217 218
184 198 197 174 194 191 191 207 182 201 197 199 201 189 211 206 200 211 216 214 216 221 207 177 193 204 213 220 219 217 213 209 207 209 210 213 215 212 211 213 211 210 213
194 209 199 185 204 197 199 202 187 196 210 212 239 199 232 219 215 214 225 211 206 214 223 217 202 197 203 211 215 215 215 213 208 206 208 212 212 208 209 211 210 211 212
196 211 224 188 210 209 212 205 200 192 199 190 212 220 213 205 204 214 226 232 216 215 222 222 232 223 190 193 204 210 215 215 210 208 209 213 214 212 211 214 213 214 213
207 205 218 218 206 207 208 209 209 218 213 206 224 234 223 191 187 204 213 216 232 220 217 217 221 226 237 206 181 198 212 216 214 210 211 212 213 212 213 215 215 213 213
206 221 216 223 213 217 206 210 214 218 220 221 230 253 259 246 210 180 203 210 219 230 232 233 227 226 227 228 207 189 204 212 214 214 213 212 212 212 215 217 218 217 217
207 207 211 215 221 225 214 225 209 224 224 228 215 236 266 310 288 245 198 194 208 222 234 239 231 225 227 227 214 205 197 208 213 216 216 215 214 216 217 219 222 222 221
206 209 206 210 215 224 218 230 215 226 227 238 236 223 222 231 240 253 254 233 219 220 219 228 237 233 226 225 221 204 189 204 211 215 218 216 216 218 219 221 224 227 225
195 199 203 207 214 219 214 217 221 218 231 240 251 242 233 236 236 242 254 248 245 239 232 236 235 228 225 224 217 177 191 204 209 211 213 213 215 218 220 223 226 229 228
193 191 202 202 208 213 218 216 216 228 225 228 234 241 243 248 256 257 256 259 261 253 236 235 226 228 225 218 207 182 200 203 207 210 213 214 214 216 219 223 226 229 229
209 190 200 204 210 216 221 215 223 218 223 231 238 243 246 243 242 241 251 260 259 250 237 238 225 220 229 229 205 199 208 194 204 209 212 213 214 213 216 218 220 223 226
208 199 203 208 211 215 224 224 228 227 224 231 236 229 239 239 240 243 245 251 261 268 258 230 233 220 231 232 194 219 225 189 198 207 210 211 209 208 208 211 214 218 221
214 209 210 215 217 216 219 229 228 224 231 233 241 245 247 246 242 244 244 245 251 262 268 259 248 234 244 251 203 233 231 188 198 204 208 209 208 206 205 207 211 213 211
207 209 211 215 218 218 217 223 238 230 232 236 239 234 238 254 252 246 241 243 246 250 259 265 261 240 233 254 238 244 238 228 208 193 199 201 204 207 205 203 204 205 205
212 209 210 213 218 216 216 222 234 235 237 239 241 241 239 234 239 252 249 246 247 247 252 262 262 246 236 239 240 244 244 235 237 173 182 192 197 200 201 200 200 202 202
213 213 210 213 217 218 218 223 233 238 243 244 242 241 242 241 242 243 247 250 250 245 246 252 256 250 247 237 234 235 241 237 241 175 173 187 193 195 196 196 197 199 199
214 217 216 219 220 221 222 227 232 236 241 244 244 244 245 241 243 246 246 248 253 253 246 249 251 246 242 230 228 234 232 222 230 220 192 185 181 190 195 196 198 199 198
216 216 218 219 222 224 225 230 237 239 241 242 240 240 242 246 258 259 263 258 254 254 253 246 246 244 240 229 233 238 238 235 225 217 213 207 193 201 197 199 201 200 199
215 215 220 220 222 227 193 225 250 247 244 244 241 239 237 229 235 236 252 263 268 263 263 258 252 249 244 240 242 245 240 237 240 203 222 231 219 218 214 207 184 190 199
212 216 221 221 222 222 189 202 239 253 249 247 247 246 250 240 234 241 233 231 242 251 255 260 259 257 254 247 244 242 239 242 247 226 216 236 225 226 223 197 170 182 192
215 220 223 228 230 215 186 208 231 242 248 247 246 244 248 253 250 258 258 251 246 241 239 243 256 262 261 257 245 244 244 244 246 230 220 239 235 235 229 205 168 177 187
217 225 228 229 230 223 193 209 233 242 244 249 248 247 249 250 249 258 254 254 255 251 233 232 250 257 267 261 249 246 239 240 243 233 215 234 241 245 240 224 181 176 184
217 225 226 230 232 239 205 209 234 244 245 249 246 241 238 251 250 245 250 253 255 256 257 238 230 235 240 233 222 231 238 239 246 245 212 218 235 240 244 230 211 193 196